Time,TemperatureF,DewpointF,PressureIn,WindDirection,WindDirectionDegrees,WindSpeedMPH,WindSpeedGustMPH,Humidity,HourlyPrecipIn,Conditions,Clouds,dailyrainin,SoftwareType,DateUTC
2013-03-19 00:00:00,35.6,30.3,29.54,SE,135,6.9,6.9,81,0.00,RA,,0.00,WeatherDisplay:10.37,2013-03-19 04:00:00,
2013-03-19 00:05:00,35.6,30.3,29.54,SE,135,5.8,5.8,81,0.01,RA,,0.01,WeatherDisplay:10.37,2013-03-19 04:05:00,
2013-03-19 00:10:00,35.4,30.8,29.54,South,180,4.6,4.6,83,0.01,RA,,0.01,WeatherDisplay:10.37,2013-03-19 04:10:00,
2013-03-19 00:16:00,35.4,30.8,29.54,SE,135,3.5,3.5,83,0.01,CLR,,0.01,WeatherDisplay:10.37,2013-03-19 04:16:00,
2013-03-19 00:21:00,35.6,30.6,29.54,South,180,5.8,5.8,82,0.01,CLR,,0.01,WeatherDisplay:10.37,2013-03-19 04:21:00,
2013-03-19 00:26:00,35.6,30.9,29.53,NW,315,6.9,6.9,83,0.01,CLR,,0.01,WeatherDisplay:10.37,2013-03-19 04:26:00,
2013-03-19 00:31:00,36.0,31.0,29.53,SSW,202,8.1,8.1,82,0.00,CLR,,0.01,WeatherDisplay:10.37,2013-03-19 04:31:00,
2013-03-19 00:36:00,36.3,31.4,29.53,SW,225,6.9,6.9,82,0.01,RA,,0.02,WeatherDisplay:10.37,2013-03-19 04:36:00,
2013-03-19 00:41:00,36.7,31.7,29.54,South,180,12.7,12.7,82,0.01,RA,,0.02,WeatherDisplay:10.37,2013-03-19 04:41:00,
2013-03-19 00:46:00,36.9,31.6,29.54,East,90,10.4,10.4,81,0.01,CLR,,0.02,WeatherDisplay:10.37,2013-03-19 04:46:00,
2013-03-19 00:52:00,36.9,31.6,29.53,SE,135,10.4,10.4,81,0.00,CLR,,0.02,WeatherDisplay:10.37,2013-03-19 04:52:00,
2013-03-19 00:57:00,36.9,31.6,29.54,WNW,292,6.9,6.9,81,0.01,RA,,0.04,WeatherDisplay:10.37,2013-03-19 04:57:00,
2013-03-19 01:02:00,36.9,31.3,29.54,NW,315,9.8,9.8,80,0.04,RA,,0.04,WeatherDisplay:10.37,2013-03-19 05:02:00,
2013-03-19 01:07:00,36.9,31.3,29.54,WSW,248,5.8,5.8,80,0.02,CLR,,0.04,WeatherDisplay:10.37,2013-03-19 05:07:00,
2013-03-19 01:12:00,36.9,31.3,29.54,South,180,11.5,11.5,80,0.02,CLR,,0.04,WeatherDisplay:10.37,2013-03-19 05:12:00,
2013-03-19 01:17:00,36.9,31.3,29.54,SW,225,8.1,8.1,80,0.02,CLR,,0.04,WeatherDisplay:10.37,2013-03-19 05:17:00,
2013-03-19 01:22:00,36.7,31.4,29.54,SW,225,10.4,10.4,81,0.02,CLR,,0.04,WeatherDisplay:10.37,2013-03-19 05:22:00,
2013-03-19 01:27:00,36.5,31.2,29.54,South,180,6.9,6.9,81,0.02,CLR,,0.04,WeatherDisplay:10.37,2013-03-19 05:27:00,
2013-03-19 01:32:00,36.5,31.5,29.55,South,180,11.5,11.5,82,0.01,CLR,,0.04,WeatherDisplay:10.37,2013-03-19 05:32:00,
2013-03-19 01:37:00,36.3,31.4,29.55,SW,225,9.2,9.2,82,0.01,CLR,,0.04,WeatherDisplay:10.37,2013-03-19 05:37:00,
2013-03-19 01:42:00,36.3,31.4,29.55,SW,225,6.9,6.9,82,0.02,RA,,0.05,WeatherDisplay:10.37,2013-03-19 05:42:00,
2013-03-19 01:47:00,36.3,31.7,29.55,SW,225,11.4,11.4,83,0.02,RA,,0.05,WeatherDisplay:10.37,2013-03-19 05:47:00,
2013-03-19 01:52:00,36.3,31.7,29.55,South,180,10.4,10.4,83,0.02,CLR,,0.05,WeatherDisplay:10.37,2013-03-19 05:52:00,
2013-03-19 01:57:00,36.3,31.9,29.55,West,270,15.2,15.2,84,0.01,CLR,,0.05,WeatherDisplay:10.37,2013-03-19 05:57:00,
2013-03-19 02:02:00,36.1,31.8,29.55,South,180,12.7,12.7,84,0.01,CLR,,0.05,WeatherDisplay:10.37,2013-03-19 06:02:00,
2013-03-19 02:07:00,36.1,31.8,29.55,WNW,292,8.1,8.3,84,0.01,CLR,,0.05,WeatherDisplay:10.37,2013-03-19 06:07:00,
2013-03-19 02:12:00,36.1,32.1,29.55,SW,225,15.0,15.0,85,0.01,CLR,,0.05,WeatherDisplay:10.37,2013-03-19 06:12:00,
2013-03-19 02:17:00,36.0,31.9,29.55,South,180,8.1,8.1,85,0.01,CLR,,0.05,WeatherDisplay:10.37,2013-03-19 06:17:00,
2013-03-19 02:22:00,35.8,31.7,29.55,SE,135,8.1,8.1,85,0.02,RA,,0.06,WeatherDisplay:10.37,2013-03-19 06:22:00,
2013-03-19 02:27:00,35.8,32.0,29.55,South,180,10.4,10.4,86,0.02,RA,,0.06,WeatherDisplay:10.37,2013-03-19 06:27:00,
2013-03-19 02:32:00,35.8,32.0,29.55,NW,315,10.4,10.4,86,0.02,CLR,,0.06,WeatherDisplay:10.37,2013-03-19 06:32:00,
2013-03-19 02:37:00,36.1,32.4,29.55,SW,225,16.1,16.1,86,0.02,CLR,,0.06,WeatherDisplay:10.37,2013-03-19 06:37:00,
2013-03-19 02:42:00,36.3,32.8,29.55,South,180,12.7,12.7,87,0.01,CLR,,0.06,WeatherDisplay:10.37,2013-03-19 06:42:00,
2013-03-19 02:47:00,36.7,33.2,29.55,SW,225,18.4,18.4,87,0.01,CLR,,0.06,WeatherDisplay:10.37,2013-03-19 06:47:00,
2013-03-19 02:52:00,36.7,33.2,29.55,NE,45,13.8,13.8,87,0.01,CLR,,0.06,WeatherDisplay:10.37,2013-03-19 06:52:00,
2013-03-19 02:57:00,36.5,33.0,29.55,SW,225,11.5,11.5,87,0.01,CLR,,0.06,WeatherDisplay:10.37,2013-03-19 06:57:00,
2013-03-19 03:02:00,36.5,33.0,29.55,SW,225,10.4,10.4,87,0.01,CLR,,0.06,WeatherDisplay:10.37,2013-03-19 07:02:00,
2013-03-19 03:07:00,36.3,32.8,29.55,WNW,292,15.0,15.0,87,0.01,CLR,,0.06,WeatherDisplay:10.37,2013-03-19 07:07:00,
2013-03-19 03:12:00,36.3,32.8,29.55,South,180,6.9,6.9,87,0.01,CLR,,0.06,WeatherDisplay:10.37,2013-03-19 07:12:00,
2013-03-19 03:17:00,36.3,32.8,29.55,South,180,19.6,19.6,87,0.01,CLR,,0.06,WeatherDisplay:10.37,2013-03-19 07:17:00,
2013-03-19 03:22:00,36.3,32.8,29.55,SW,225,15.0,15.0,87,0.00,CLR,,0.06,WeatherDisplay:10.37,2013-03-19 07:22:00,
2013-03-19 03:27:00,36.3,32.8,29.55,SW,225,11.5,11.5,87,0.00,CLR,,0.06,WeatherDisplay:10.37,2013-03-19 07:27:00,
2013-03-19 03:32:00,36.3,32.8,29.55,SW,225,17.3,17.3,87,0.00,CLR,,0.06,WeatherDisplay:10.37,2013-03-19 07:32:00,
2013-03-19 03:37:00,36.3,32.8,29.55,SW,225,17.3,17.3,87,0.00,CLR,,0.06,WeatherDisplay:10.37,2013-03-19 07:37:00,
2013-03-19 03:42:00,36.3,32.8,29.55,South,180,13.8,13.8,87,0.00,CLR,,0.06,WeatherDisplay:10.37,2013-03-19 07:42:00,
2013-03-19 03:47:00,36.3,32.8,29.56,West,270,12.7,12.7,87,0.00,CLR,,0.06,WeatherDisplay:10.37,2013-03-19 07:47:00,
2013-03-19 03:52:00,36.1,32.6,29.55,SW,225,15.0,15.0,87,0.00,CLR,,0.06,WeatherDisplay:10.37,2013-03-19 07:52:00,
2013-03-19 03:57:00,36.1,32.4,29.55,SW,225,11.5,11.5,86,0.00,CLR,,0.06,WeatherDisplay:10.37,2013-03-19 07:57:00,
2013-03-19 04:02:00,36.0,32.2,29.55,NW,315,10.4,10.4,86,0.01,RA,,0.07,WeatherDisplay:10.37,2013-03-19 08:02:00,
2013-03-19 04:07:00,36.0,32.2,29.55,NW,315,10.4,10.4,86,0.01,RA,,0.07,WeatherDisplay:10.37,2013-03-19 08:07:00,
2013-03-19 04:12:00,36.0,32.2,29.55,North,0,16.1,16.1,86,0.01,CLR,,0.07,WeatherDisplay:10.37,2013-03-19 08:12:00,
2013-03-19 04:17:00,35.8,32.0,29.55,SW,225,13.8,13.8,86,0.01,CLR,,0.07,WeatherDisplay:10.37,2013-03-19 08:17:00,
2013-03-19 04:22:00,35.6,31.8,29.55,NE,45,12.7,12.7,86,0.01,CLR,,0.07,WeatherDisplay:10.37,2013-03-19 08:22:00,
2013-03-19 04:28:00,35.6,31.8,29.56,SW,225,15.0,15.0,86,0.01,CLR,,0.07,WeatherDisplay:10.37,2013-03-19 08:28:00,
2013-03-19 04:33:00,35.6,31.8,29.56,SW,225,12.7,12.7,86,0.01,CLR,,0.07,WeatherDisplay:10.37,2013-03-19 08:33:00,
2013-03-19 04:38:00,35.4,31.9,29.56,West,270,15.0,15.0,87,0.01,CLR,,0.07,WeatherDisplay:10.37,2013-03-19 08:38:00,
2013-03-19 04:43:00,35.4,31.6,29.56,South,180,19.6,19.6,86,0.01,CLR,,0.07,WeatherDisplay:10.37,2013-03-19 08:43:00,
2013-03-19 04:48:00,35.2,31.5,29.56,SW,225,15.0,15.0,86,0.01,CLR,,0.07,WeatherDisplay:10.37,2013-03-19 08:48:00,
2013-03-19 04:53:00,35.2,31.5,29.56,West,270,13.8,13.8,86,0.01,CLR,,0.07,WeatherDisplay:10.37,2013-03-19 08:53:00,
2013-03-19 04:58:00,35.2,31.5,29.56,South,180,15.0,15.0,86,0.01,CLR,,0.07,WeatherDisplay:10.37,2013-03-19 08:58:00,
2013-03-19 05:03:00,35.2,31.5,29.56,North,0,20.7,20.7,86,0.00,CLR,,0.07,WeatherDisplay:10.37,2013-03-19 09:03:00,
2013-03-19 05:08:00,35.2,31.5,29.56,SW,225,15.0,15.0,86,0.00,CLR,,0.07,WeatherDisplay:10.37,2013-03-19 09:08:00,
2013-03-19 05:13:00,35.2,31.5,29.56,SE,135,12.7,12.7,86,0.00,CLR,,0.07,WeatherDisplay:10.37,2013-03-19 09:13:00,
2013-03-19 05:18:00,35.2,31.5,29.56,SW,225,17.3,17.3,86,0.00,CLR,,0.07,WeatherDisplay:10.37,2013-03-19 09:18:00,
2013-03-19 05:23:00,35.2,31.2,29.56,SW,225,12.7,12.7,85,0.00,CLR,,0.07,WeatherDisplay:10.37,2013-03-19 09:23:00,
2013-03-19 05:28:00,35.1,31.0,29.57,SW,225,17.3,17.3,85,0.00,CLR,,0.07,WeatherDisplay:10.37,2013-03-19 09:28:00,
2013-03-19 05:33:00,35.1,31.0,29.57,SW,225,15.0,15.0,85,0.00,CLR,,0.07,WeatherDisplay:10.37,2013-03-19 09:33:00,
2013-03-19 05:38:00,35.1,31.0,29.57,NW,315,12.7,12.7,85,0.00,CLR,,0.07,WeatherDisplay:10.37,2013-03-19 09:38:00,
2013-03-19 05:43:00,35.1,31.0,29.57,North,0,9.2,9.2,85,0.00,CLR,,0.07,WeatherDisplay:10.37,2013-03-19 09:43:00,
2013-03-19 05:48:00,34.9,30.8,29.58,NW,315,12.7,12.7,85,0.00,CLR,,0.07,WeatherDisplay:10.37,2013-03-19 09:48:00,
2013-03-19 05:53:00,34.9,30.8,29.57,SW,225,5.8,6.9,85,0.00,CLR,,0.07,WeatherDisplay:10.37,2013-03-19 09:53:00,
2013-03-19 05:58:00,35.1,30.7,29.57,West,270,7.6,7.6,84,0.00,CLR,,0.07,WeatherDisplay:10.37,2013-03-19 09:58:00,
2013-03-19 06:03:00,35.1,30.7,29.58,ENE,68,11.5,11.5,84,0.00,CLR,,0.07,WeatherDisplay:10.37,2013-03-19 10:03:00,
2013-03-19 06:08:00,35.1,30.7,29.57,SW,225,8.1,8.1,84,0.00,CLR,,0.07,WeatherDisplay:10.37,2013-03-19 10:08:00,
2013-03-19 06:13:00,34.9,30.5,29.58,SW,225,13.8,13.8,84,0.00,CLR,,0.07,WeatherDisplay:10.37,2013-03-19 10:13:00,
2013-03-19 06:18:00,35.1,30.4,29.58,SW,225,8.1,8.1,83,0.00,CLR,,0.07,WeatherDisplay:10.37,2013-03-19 10:18:00,
2013-03-19 06:23:00,35.1,30.4,29.58,South,180,10.4,10.4,83,0.00,CLR,,0.07,WeatherDisplay:10.37,2013-03-19 10:23:00,
2013-03-19 06:28:00,35.1,30.4,29.58,South,180,11.5,11.5,83,0.00,CLR,,0.07,WeatherDisplay:10.37,2013-03-19 10:28:00,
2013-03-19 06:33:00,35.1,30.1,29.58,NW,315,15.0,15.0,82,0.00,CLR,,0.07,WeatherDisplay:10.37,2013-03-19 10:33:00,
2013-03-19 06:38:00,35.2,30.0,29.58,South,180,10.4,10.4,81,0.00,CLR,,0.07,WeatherDisplay:10.37,2013-03-19 10:38:00,
2013-03-19 06:43:00,35.2,29.7,29.58,SW,225,8.1,8.1,80,0.00,CLR,,0.07,WeatherDisplay:10.37,2013-03-19 10:43:00,
2013-03-19 06:48:00,35.2,29.4,29.58,SW,225,12.7,12.7,79,0.00,CLR,,0.07,WeatherDisplay:10.37,2013-03-19 10:48:00,
2013-03-19 06:53:00,35.4,29.2,29.58,West,270,10.4,10.4,78,0.00,CLR,,0.07,WeatherDisplay:10.37,2013-03-19 10:53:00,
2013-03-19 06:58:00,35.2,28.8,29.58,South,180,12.7,12.7,77,0.00,CLR,,0.07,WeatherDisplay:10.37,2013-03-19 10:58:00,
2013-03-19 07:03:00,35.6,28.8,29.58,NW,315,15.0,15.0,76,0.00,CLR,,0.07,WeatherDisplay:10.37,2013-03-19 11:03:00,
2013-03-19 07:08:00,36.0,28.8,29.58,SW,225,16.1,16.1,75,0.00,CLR,,0.07,WeatherDisplay:10.37,2013-03-19 11:08:00,
2013-03-19 07:13:00,36.0,28.5,29.58,SW,225,16.1,16.1,74,0.00,CLR,,0.07,WeatherDisplay:10.37,2013-03-19 11:13:00,
2013-03-19 07:18:00,36.1,28.6,29.59,SW,225,11.5,11.5,74,0.00,CLR,,0.07,WeatherDisplay:10.37,2013-03-19 11:18:00,
2013-03-19 07:23:00,36.0,28.5,29.59,West,270,8.1,9.2,74,0.00,CLR,,0.07,WeatherDisplay:10.37,2013-03-19 11:23:00,
2013-03-19 07:28:00,35.6,27.8,29.59,SW,225,12.7,13.0,73,0.00,CLR,,0.07,WeatherDisplay:10.37,2013-03-19 11:28:00,
2013-03-19 07:33:00,35.4,27.6,29.59,SE,135,21.9,21.9,73,0.00,CLR,,0.07,WeatherDisplay:10.37,2013-03-19 11:33:00,
2013-03-19 07:38:00,35.2,26.8,29.58,SW,225,12.7,12.7,71,0.00,CLR,,0.07,WeatherDisplay:10.37,2013-03-19 11:38:00,
2013-03-19 07:43:00,35.2,26.1,29.59,SW,225,20.7,20.7,69,0.00,CLR,,0.07,WeatherDisplay:10.37,2013-03-19 11:43:00,
2013-03-19 07:48:00,35.2,25.7,29.58,South,180,17.3,17.3,68,0.00,CLR,,0.07,WeatherDisplay:10.37,2013-03-19 11:48:00,
2013-03-19 07:53:00,35.1,25.2,29.58,South,180,15.0,15.0,67,0.00,CLR,,0.07,WeatherDisplay:10.37,2013-03-19 11:53:00,
2013-03-19 07:58:00,34.9,25.0,29.59,SW,225,8.1,8.1,67,0.00,CLR,,0.07,WeatherDisplay:10.37,2013-03-19 11:58:00,
2013-03-19 08:03:00,34.9,25.4,29.58,South,180,15.0,15.0,68,0.00,CLR,,0.07,WeatherDisplay:10.37,2013-03-19 12:03:00,
2013-03-19 08:08:00,34.9,25.4,29.59,South,180,11.5,11.5,68,0.00,CLR,,0.07,WeatherDisplay:10.37,2013-03-19 12:08:00,
2013-03-19 08:13:00,34.7,25.2,29.59,SE,135,15.0,15.0,68,0.00,CLR,,0.07,WeatherDisplay:10.37,2013-03-19 12:13:00,
2013-03-19 08:18:00,34.7,25.6,29.58,SW,225,8.1,8.1,69,0.00,CLR,,0.07,WeatherDisplay:10.37,2013-03-19 12:18:00,
2013-03-19 08:23:00,34.7,25.6,29.58,South,180,10.4,10.4,69,0.00,CLR,,0.07,WeatherDisplay:10.37,2013-03-19 12:23:00,
2013-03-19 08:28:00,34.7,25.9,29.59,South,180,13.8,13.8,70,0.00,CLR,,0.07,WeatherDisplay:10.37,2013-03-19 12:28:00,
2013-03-19 08:33:00,34.7,25.9,29.58,NW,315,8.1,8.1,70,0.00,CLR,,0.07,WeatherDisplay:10.37,2013-03-19 12:33:00,
2013-03-19 08:38:00,34.7,25.9,29.58,West,270,13.0,13.0,70,0.00,CLR,,0.07,WeatherDisplay:10.37,2013-03-19 12:38:00,
2013-03-19 08:43:00,34.9,26.1,29.58,West,270,15.0,15.0,70,0.00,CLR,,0.07,WeatherDisplay:10.37,2013-03-19 12:43:00,
2013-03-19 08:48:00,34.9,25.4,29.58,NW,315,16.1,16.1,68,0.00,CLR,,0.07,WeatherDisplay:10.37,2013-03-19 12:48:00,
2013-03-19 08:54:00,34.7,25.2,29.59,West,270,11.5,11.5,68,0.00,CLR,,0.07,WeatherDisplay:10.37,2013-03-19 12:54:00,
2013-03-19 08:59:00,34.7,25.6,29.59,NNW,338,12.7,12.7,69,0.00,CLR,,0.07,WeatherDisplay:10.37,2013-03-19 12:59:00,
2013-03-19 09:04:00,34.7,25.6,29.58,SW,225,10.4,10.4,69,0.00,CLR,,0.07,WeatherDisplay:10.37,2013-03-19 13:04:00,
2013-03-19 09:09:00,34.5,25.4,29.59,SE,135,16.1,16.1,69,0.00,CLR,,0.07,WeatherDisplay:10.37,2013-03-19 13:09:00,
2013-03-19 09:14:00,34.3,24.9,29.59,NW,315,11.5,11.5,68,0.00,CLR,,0.07,WeatherDisplay:10.37,2013-03-19 13:14:00,
2013-03-19 09:19:00,34.2,24.7,29.59,West,270,9.2,9.2,68,0.00,CLR,,0.07,WeatherDisplay:10.37,2013-03-19 13:19:00,
2013-03-19 09:24:00,34.2,25.0,29.59,WNW,292,9.2,9.2,69,0.00,CLR,,0.07,WeatherDisplay:10.37,2013-03-19 13:24:00,
2013-03-19 09:29:00,34.2,25.4,29.59,SW,225,10.4,10.4,70,0.00,CLR,,0.07,WeatherDisplay:10.37,2013-03-19 13:29:00,
2013-03-19 09:34:00,34.2,25.7,29.59,NW,315,8.1,8.1,71,0.00,CLR,,0.07,WeatherDisplay:10.37,2013-03-19 13:34:00,
2013-03-19 09:39:00,34.2,25.7,29.59,West,270,10.4,10.4,71,0.00,CLR,,0.07,WeatherDisplay:10.37,2013-03-19 13:39:00,
2013-03-19 09:44:00,34.0,25.6,29.59,SW,225,12.7,12.7,71,0.00,CLR,,0.07,WeatherDisplay:10.37,2013-03-19 13:44:00,
2013-03-19 09:49:00,33.8,25.4,29.59,SE,135,9.2,9.2,71,0.00,CLR,,0.07,WeatherDisplay:10.37,2013-03-19 13:49:00,
2013-03-19 09:54:00,33.6,25.9,29.59,NW,315,15.0,15.0,73,0.00,CLR,,0.07,WeatherDisplay:10.37,2013-03-19 13:54:00,
2013-03-19 09:59:00,33.3,25.2,29.60,NW,315,18.4,18.4,72,0.00,CLR,,0.07,WeatherDisplay:10.37,2013-03-19 13:59:00,
2013-03-19 10:04:00,32.9,24.5,29.60,SW,225,20.7,20.7,71,0.00,CLR,,0.07,WeatherDisplay:10.37,2013-03-19 14:04:00,
2013-03-19 10:09:00,32.9,24.2,29.59,NE,45,9.2,9.2,70,0.00,CLR,,0.07,WeatherDisplay:10.37,2013-03-19 14:09:00,
2013-03-19 10:14:00,33.3,24.5,29.59,West,270,12.7,12.7,70,0.00,CLR,,0.07,WeatherDisplay:10.37,2013-03-19 14:14:00,
2013-03-19 10:19:00,33.3,24.2,29.59,SW,225,8.1,8.1,69,0.00,CLR,,0.07,WeatherDisplay:10.37,2013-03-19 14:19:00,
2013-03-19 10:24:00,33.4,24.4,29.59,NW,315,10.4,10.4,69,0.00,CLR,,0.07,WeatherDisplay:10.37,2013-03-19 14:24:00,
2013-03-19 10:29:00,33.3,23.5,29.59,NW,315,12.7,12.7,67,0.00,CLR,,0.07,WeatherDisplay:10.37,2013-03-19 14:29:00,
2013-03-19 10:34:00,33.3,23.5,29.59,NW,315,11.5,11.5,67,0.00,CLR,,0.07,WeatherDisplay:10.37,2013-03-19 14:34:00,
2013-03-19 10:39:00,33.4,23.7,29.59,West,270,10.4,10.4,67,0.00,CLR,,0.07,WeatherDisplay:10.37,2013-03-19 14:39:00,
2013-03-19 10:44:00,33.8,23.6,29.59,NW,315,11.5,11.5,66,0.00,CLR,,0.07,WeatherDisplay:10.37,2013-03-19 14:44:00,
2013-03-19 10:49:00,33.4,23.3,29.59,South,180,10.4,10.4,66,0.00,CLR,,0.07,WeatherDisplay:10.37,2013-03-19 14:49:00,
2013-03-19 10:54:00,33.3,23.1,29.60,South,180,19.6,19.6,66,0.00,CLR,,0.07,WeatherDisplay:10.37,2013-03-19 14:54:00,
2013-03-19 10:59:00,33.3,23.1,29.60,SW,225,8.1,8.1,66,0.00,CLR,,0.07,WeatherDisplay:10.37,2013-03-19 14:59:00,
2013-03-19 11:04:00,33.3,23.1,29.60,SW,225,12.7,12.7,66,0.00,CLR,,0.07,WeatherDisplay:10.37,2013-03-19 15:04:00,
2013-03-19 11:09:00,33.1,22.9,29.60,West,270,12.7,12.7,66,0.00,CLR,,0.07,WeatherDisplay:10.37,2013-03-19 15:09:00,
2013-03-19 11:14:00,32.7,22.6,29.60,West,270,12.7,12.7,66,0.00,CLR,,0.07,WeatherDisplay:10.37,2013-03-19 15:14:00,
2013-03-19 11:19:00,32.7,22.6,29.61,West,270,11.5,11.5,66,0.00,CLR,,0.07,WeatherDisplay:10.37,2013-03-19 15:19:00,
2013-03-19 11:24:00,32.5,22.4,29.60,NW,315,11.5,11.5,66,0.00,CLR,,0.07,WeatherDisplay:10.37,2013-03-19 15:24:00,
2013-03-19 11:29:00,32.4,22.3,29.61,West,270,20.7,20.7,66,0.00,CLR,,0.07,WeatherDisplay:10.37,2013-03-19 15:29:00,
2013-03-19 11:34:00,32.2,22.1,29.61,WNW,292,12.7,12.7,66,0.00,CLR,,0.07,WeatherDisplay:10.37,2013-03-19 15:34:00,
2013-03-19 11:39:00,32.2,22.4,29.61,SW,225,19.6,19.6,67,0.00,CLR,,0.07,WeatherDisplay:10.37,2013-03-19 15:39:00,
2013-03-19 11:45:00,32.5,22.8,29.61,South,180,12.7,12.7,67,0.00,CLR,,0.07,WeatherDisplay:10.37,2013-03-19 15:45:00,
2013-03-19 11:50:00,32.7,22.6,29.61,South,180,8.1,8.1,66,0.00,CLR,,0.07,WeatherDisplay:10.37,2013-03-19 15:50:00,
2013-03-19 11:55:00,32.5,22.1,29.61,North,0,5.8,5.8,65,0.00,CLR,,0.07,WeatherDisplay:10.37,2013-03-19 15:55:00,
2013-03-19 12:00:00,32.5,22.1,29.61,South,180,5.8,5.8,65,0.00,CLR,,0.07,WeatherDisplay:10.37,2013-03-19 16:00:00,
2013-03-19 12:05:00,32.9,22.4,29.61,SW,225,10.4,10.4,65,0.00,CLR,,0.07,WeatherDisplay:10.37,2013-03-19 16:05:00,
2013-03-19 12:10:00,32.7,21.9,29.61,NW,315,10.4,10.4,64,0.00,CLR,,0.07,WeatherDisplay:10.37,2013-03-19 16:10:00,
2013-03-19 12:15:00,32.4,21.2,29.61,East,90,6.9,6.9,63,0.00,CLR,,0.07,WeatherDisplay:10.37,2013-03-19 16:15:00,
2013-03-19 12:20:00,32.2,21.0,29.61,South,180,16.1,16.1,63,0.00,CLR,,0.07,WeatherDisplay:10.37,2013-03-19 16:20:00,
2013-03-19 12:25:00,32.2,21.4,29.62,NE,45,10.4,10.4,64,0.00,CLR,,0.07,WeatherDisplay:10.37,2013-03-19 16:25:00,
2013-03-19 12:30:00,32.0,20.8,29.62,West,270,12.7,12.7,63,0.00,CLR,,0.07,WeatherDisplay:10.37,2013-03-19 16:30:00,
2013-03-19 12:35:00,31.5,21.0,29.61,SW,225,8.1,8.1,65,0.00,CLR,,0.07,WeatherDisplay:10.37,2013-03-19 16:35:00,
2013-03-19 12:40:00,31.5,20.7,29.61,North,0,9.2,9.2,64,0.00,CLR,,0.07,WeatherDisplay:10.37,2013-03-19 16:40:00,
2013-03-19 12:45:00,32.0,20.8,29.62,NNW,338,15.0,15.0,63,0.00,CLR,,0.07,WeatherDisplay:10.37,2013-03-19 16:45:00,
2013-03-19 12:50:00,32.2,21.4,29.62,NW,315,9.2,9.2,64,0.00,CLR,,0.07,WeatherDisplay:10.37,2013-03-19 16:50:00,
2013-03-19 12:55:00,31.6,21.2,29.62,SW,225,15.0,15.0,65,0.00,CLR,,0.07,WeatherDisplay:10.37,2013-03-19 16:55:00,
2013-03-19 13:00:00,31.3,20.9,29.63,West,270,10.4,10.4,65,0.00,CLR,,0.07,WeatherDisplay:10.37,2013-03-19 17:00:00,
2013-03-19 13:05:00,31.3,20.9,29.63,NW,315,12.7,12.7,65,0.00,CLR,,0.07,WeatherDisplay:10.37,2013-03-19 17:05:00,
2013-03-19 13:10:00,31.1,20.7,29.63,SE,135,13.8,13.8,65,0.00,CLR,,0.07,WeatherDisplay:10.37,2013-03-19 17:10:00,
2013-03-19 13:15:00,31.3,20.9,29.63,WNW,292,8.1,8.1,65,0.00,CLR,,0.07,WeatherDisplay:10.37,2013-03-19 17:15:00,
2013-03-19 13:20:00,31.5,21.0,29.63,NW,315,15.0,15.0,65,0.00,CLR,,0.07,WeatherDisplay:10.37,2013-03-19 17:20:00,
2013-03-19 13:25:00,31.1,20.0,29.64,West,270,15.0,15.0,63,0.00,CLR,,0.07,WeatherDisplay:10.37,2013-03-19 17:25:00,
2013-03-19 13:30:00,31.3,19.8,29.64,West,270,15.0,15.0,62,0.00,CLR,,0.07,WeatherDisplay:10.37,2013-03-19 17:30:00,
2013-03-19 13:35:00,31.5,19.9,29.64,SW,225,13.8,13.8,62,0.00,CLR,,0.07,WeatherDisplay:10.37,2013-03-19 17:35:00,
2013-03-19 13:40:00,31.8,19.5,29.63,SW,225,15.9,15.9,60,0.00,CLR,,0.07,WeatherDisplay:10.37,2013-03-19 17:40:00,
2013-03-19 13:45:00,31.5,18.8,29.64,SW,225,19.6,19.6,59,0.00,CLR,,0.07,WeatherDisplay:10.37,2013-03-19 17:45:00,
2013-03-19 13:50:00,31.1,18.0,29.64,NW,315,10.4,10.4,58,0.00,CLR,,0.07,WeatherDisplay:10.37,2013-03-19 17:50:00,
2013-03-19 14:13:00,31.4,18.7,29.64,North,0,10.4,0.0,59,0.00,CLR,,0.07,WeatherDisplay:10.37,2013-03-19 18:13:00,
2013-03-19 14:18:00,30.2,19.8,29.65,NW,315,17.3,17.3,65,0.00,RA,,0.07,WeatherDisplay:10.37,2013-03-19 18:18:00,
2013-03-19 14:23:00,30.6,20.2,29.65,SW,225,12.7,12.7,65,0.00,RA,,0.07,WeatherDisplay:10.37,2013-03-19 18:23:00,
2013-03-19 14:28:00,31.1,20.0,29.65,SW,225,10.4,10.4,63,0.00,CLR,,0.07,WeatherDisplay:10.37,2013-03-19 18:28:00,
2013-03-19 14:33:00,31.1,19.6,29.65,SW,225,12.7,12.7,62,0.00,CLR,,0.07,WeatherDisplay:10.37,2013-03-19 18:33:00,
2013-03-19 14:39:00,32.5,20.2,29.65,South,180,19.6,19.6,60,0.00,CLR,,0.07,WeatherDisplay:10.37,2013-03-19 18:39:00,
2013-03-19 14:45:00,32.4,18.4,29.65,SW,225,15.0,15.0,56,0.00,CLR,,0.07,WeatherDisplay:10.37,2013-03-19 18:45:00,
2013-03-19 14:50:00,32.4,18.0,29.65,NW,315,17.3,17.3,55,0.00,CLR,,0.07,WeatherDisplay:10.37,2013-03-19 18:50:00,
2013-03-19 14:55:00,32.2,17.8,29.65,NW,315,16.1,16.1,55,0.00,CLR,,0.07,WeatherDisplay:10.37,2013-03-19 18:55:00,
2013-03-19 15:00:00,31.6,17.7,29.65,WNW,292,17.3,17.3,56,0.00,CLR,,0.07,WeatherDisplay:10.37,2013-03-19 19:00:00,
2013-03-19 15:05:00,31.1,17.2,29.66,NW,315,12.7,12.7,56,0.00,CLR,,0.07,WeatherDisplay:10.37,2013-03-19 19:05:00,
2013-03-19 15:10:00,30.9,17.0,29.66,South,180,13.8,13.8,56,0.00,CLR,,0.07,WeatherDisplay:10.37,2013-03-19 19:10:00,
2013-03-19 15:15:00,30.9,17.5,29.66,NW,315,11.5,11.5,57,0.00,CLR,,0.07,WeatherDisplay:10.37,2013-03-19 19:15:00,
2013-03-19 15:20:00,30.9,17.9,29.66,West,270,10.4,10.4,58,0.00,CLR,,0.07,WeatherDisplay:10.37,2013-03-19 19:20:00,
2013-03-19 15:25:00,30.9,18.7,29.65,NW,315,10.4,10.4,60,0.00,CLR,,0.07,WeatherDisplay:10.37,2013-03-19 19:25:00,
2013-03-19 15:30:00,31.5,19.2,29.65,SW,225,23.0,23.0,60,0.00,CLR,,0.07,WeatherDisplay:10.37,2013-03-19 19:30:00,
2013-03-19 15:35:00,31.6,18.5,29.66,NW,315,17.3,17.3,58,0.00,CLR,,0.07,WeatherDisplay:10.37,2013-03-19 19:35:00,
2013-03-19 15:40:00,31.5,18.4,29.66,South,180,17.3,17.3,58,0.00,CLR,,0.07,WeatherDisplay:10.37,2013-03-19 19:40:00,
2013-03-19 15:45:00,31.5,18.0,29.66,SW,225,15.0,15.0,57,0.00,CLR,,0.07,WeatherDisplay:10.37,2013-03-19 19:45:00,
2013-03-19 15:50:00,31.3,17.0,29.66,NW,315,18.4,18.4,55,0.00,CLR,,0.07,WeatherDisplay:10.37,2013-03-19 19:50:00,
2013-03-19 15:55:00,31.5,16.7,29.67,NW,315,12.7,12.7,54,0.00,CLR,,0.07,WeatherDisplay:10.37,2013-03-19 19:55:00,
2013-03-19 16:00:00,31.5,16.7,29.67,NW,315,8.1,8.1,54,0.00,CLR,,0.07,WeatherDisplay:10.37,2013-03-19 20:00:00,
2013-03-19 16:05:00,31.5,16.7,29.67,SW,225,16.1,16.1,54,0.00,CLR,,0.07,WeatherDisplay:10.37,2013-03-19 20:05:00,
2013-03-19 16:10:00,31.6,16.9,29.67,NW,315,8.1,8.1,54,0.00,CLR,,0.07,WeatherDisplay:10.37,2013-03-19 20:10:00,
2013-03-19 16:15:00,31.6,16.4,29.67,SW,225,12.7,12.7,53,0.00,CLR,,0.07,WeatherDisplay:10.37,2013-03-19 20:15:00,
2013-03-19 16:20:00,30.9,16.2,29.67,NW,315,13.8,13.8,54,0.00,CLR,,0.07,WeatherDisplay:10.37,2013-03-19 20:20:00,
2013-03-19 16:25:00,29.7,17.1,29.67,SE,135,19.6,19.6,59,0.00,CLR,,0.07,WeatherDisplay:10.37,2013-03-19 20:25:00,
2013-03-19 16:30:00,28.9,18.6,29.68,SW,225,12.7,12.7,65,0.00,CLR,,0.07,WeatherDisplay:10.37,2013-03-19 20:30:00,
2013-03-19 16:35:00,28.4,19.9,29.68,WSW,248,16.1,16.1,70,0.00,CLR,,0.07,WeatherDisplay:10.37,2013-03-19 20:35:00,
2013-03-19 16:40:00,28.6,20.7,29.68,NW,315,17.3,17.3,72,0.00,CLR,,0.07,WeatherDisplay:10.37,2013-03-19 20:40:00,
2013-03-19 16:45:00,28.2,19.7,29.68,NW,315,10.4,10.4,70,0.00,CLR,,0.07,WeatherDisplay:10.37,2013-03-19 20:45:00,
2013-03-19 16:50:00,28.2,20.0,29.68,South,180,8.1,8.1,71,0.00,CLR,,0.07,WeatherDisplay:10.37,2013-03-19 20:50:00,
2013-03-19 16:55:00,28.4,21.5,29.68,NW,315,5.8,5.8,75,0.00,CLR,,0.07,WeatherDisplay:10.37,2013-03-19 20:55:00,
2013-03-19 17:00:00,28.4,21.5,29.68,West,270,9.2,9.2,75,0.00,CLR,,0.07,WeatherDisplay:10.37,2013-03-19 21:00:00,
2013-03-19 17:05:00,28.8,21.5,29.68,SE,135,11.5,11.5,74,0.00,CLR,,0.07,WeatherDisplay:10.37,2013-03-19 21:05:00,
2013-03-19 17:10:00,28.9,20.7,29.69,West,270,9.2,9.2,71,0.00,CLR,,0.07,WeatherDisplay:10.37,2013-03-19 21:10:00,
2013-03-19 17:15:00,29.1,20.2,29.69,WNW,292,10.4,10.4,69,0.00,CLR,,0.07,WeatherDisplay:10.37,2013-03-19 21:15:00,
2013-03-19 17:20:00,29.1,19.9,29.69,NW,315,10.4,10.4,68,0.00,CLR,,0.07,WeatherDisplay:10.37,2013-03-19 21:20:00,
2013-03-19 17:25:00,28.9,19.3,29.69,West,270,15.0,15.0,67,0.00,CLR,,0.07,WeatherDisplay:10.37,2013-03-19 21:25:00,
2013-03-19 17:30:00,28.6,19.4,29.69,South,180,6.9,6.9,68,0.00,CLR,,0.07,WeatherDisplay:10.37,2013-03-19 21:30:00,
2013-03-19 17:35:00,28.2,18.7,29.69,SW,225,9.2,9.2,67,0.00,CLR,,0.07,WeatherDisplay:10.37,2013-03-19 21:35:00,
2013-03-19 17:40:00,28.0,19.5,29.69,SW,225,10.4,10.4,70,0.00,CLR,,0.07,WeatherDisplay:10.37,2013-03-19 21:40:00,
2013-03-19 17:45:00,28.0,19.5,29.69,SE,135,10.4,10.4,70,0.00,CLR,,0.07,WeatherDisplay:10.37,2013-03-19 21:45:00,
2013-03-19 17:50:00,28.0,19.5,29.69,SW,225,8.1,8.1,70,0.00,CLR,,0.07,WeatherDisplay:10.37,2013-03-19 21:50:00,
2013-03-19 17:55:00,28.2,19.3,29.69,NNE,22,10.4,10.4,69,0.00,CLR,,0.07,WeatherDisplay:10.37,2013-03-19 21:55:00,
2013-03-19 18:00:00,28.4,20.5,29.70,WNW,292,6.9,6.9,72,0.00,CLR,,0.07,WeatherDisplay:10.37,2013-03-19 22:00:00,
2013-03-19 18:05:00,28.4,19.9,29.70,West,270,11.5,11.5,70,0.00,CLR,,0.07,WeatherDisplay:10.37,2013-03-19 22:05:00,
2013-03-19 18:10:00,28.4,19.5,29.70,North,0,11.5,11.5,69,0.00,CLR,,0.07,WeatherDisplay:10.37,2013-03-19 22:10:00,
2013-03-19 18:15:00,28.6,19.0,29.70,West,270,10.4,10.4,67,0.00,CLR,,0.07,WeatherDisplay:10.37,2013-03-19 22:15:00,
2013-03-19 18:20:00,28.8,18.8,29.70,SW,225,8.1,8.1,66,0.00,CLR,,0.07,WeatherDisplay:10.37,2013-03-19 22:20:00,
2013-03-19 18:25:00,28.8,17.7,29.70,North,0,10.4,10.4,63,0.00,CLR,,0.07,WeatherDisplay:10.37,2013-03-19 22:25:00,
2013-03-19 18:30:00,28.8,17.4,29.70,SW,225,9.2,9.2,62,0.00,CLR,,0.07,WeatherDisplay:10.37,2013-03-19 22:30:00,
2013-03-19 18:35:00,28.8,17.4,29.70,SW,225,13.8,13.8,62,0.00,CLR,,0.07,WeatherDisplay:10.37,2013-03-19 22:35:00,
2013-03-19 18:40:00,28.6,17.6,29.70,SW,225,12.7,12.7,63,0.00,CLR,,0.07,WeatherDisplay:10.37,2013-03-19 22:40:00,
2013-03-19 18:46:00,28.4,18.1,29.71,West,270,5.8,5.8,65,0.00,CLR,,0.07,WeatherDisplay:10.37,2013-03-19 22:46:00,
2013-03-19 18:51:00,28.4,18.1,29.71,West,270,8.1,8.1,65,0.00,CLR,,0.07,WeatherDisplay:10.37,2013-03-19 22:51:00,
2013-03-19 18:56:00,28.2,16.5,29.71,SW,225,10.4,10.4,61,0.00,CLR,,0.07,WeatherDisplay:10.37,2013-03-19 22:56:00,
2013-03-19 19:01:00,28.2,16.5,29.71,NW,315,12.7,12.7,61,0.00,CLR,,0.07,WeatherDisplay:10.37,2013-03-19 23:01:00,
2013-03-19 19:06:00,28.0,16.3,29.72,South,180,5.8,6.9,61,0.00,CLR,,0.07,WeatherDisplay:10.37,2013-03-19 23:06:00,
2013-03-19 19:11:00,27.3,16.4,29.72,West,270,6.9,6.9,63,0.00,CLR,,0.07,WeatherDisplay:10.37,2013-03-19 23:11:00,
2013-03-19 19:16:00,27.1,17.3,29.71,SW,225,4.6,4.6,66,0.00,CLR,,0.07,WeatherDisplay:10.37,2013-03-19 23:16:00,
2013-03-19 19:22:00,27.1,18.0,29.72,NW,315,7.6,7.6,68,0.00,CLR,,0.07,WeatherDisplay:10.37,2013-03-19 23:22:00,
2013-03-19 19:28:00,27.1,18.0,29.72,West,270,5.8,5.8,68,0.00,CLR,,0.07,WeatherDisplay:10.37,2013-03-19 23:28:00,
2013-03-19 19:33:00,27.0,17.8,29.72,West,270,6.9,6.9,68,0.00,CLR,,0.07,WeatherDisplay:10.37,2013-03-19 23:33:00,
2013-03-19 19:38:00,27.0,17.8,29.72,NW,315,5.8,5.8,68,0.00,CLR,,0.07,WeatherDisplay:10.37,2013-03-19 23:38:00,
2013-03-19 19:43:00,27.0,17.5,29.72,North,0,5.8,5.8,67,0.00,CLR,,0.07,WeatherDisplay:10.37,2013-03-19 23:43:00,
2013-03-19 19:48:00,27.0,17.1,29.72,NW,315,4.6,4.6,66,0.00,CLR,,0.07,WeatherDisplay:10.37,2013-03-19 23:48:00,
2013-03-19 19:53:00,27.1,17.3,29.72,West,270,15.0,15.0,66,0.00,CLR,,0.07,WeatherDisplay:10.37,2013-03-19 23:53:00,
2013-03-19 19:58:00,27.1,16.9,29.72,NW,315,4.6,4.6,65,0.00,CLR,,0.07,WeatherDisplay:10.37,2013-03-19 23:58:00,
2013-03-19 20:03:00,27.1,16.9,29.72,SW,225,12.7,12.7,65,0.00,CLR,,0.07,WeatherDisplay:10.37,2013-03-20 00:03:00,
2013-03-19 20:09:00,27.3,16.7,29.72,West,270,8.1,8.1,64,0.00,CLR,,0.07,WeatherDisplay:10.37,2013-03-20 00:09:00,
2013-03-19 20:14:00,27.1,16.6,29.72,NW,315,9.2,9.2,64,0.00,CLR,,0.07,WeatherDisplay:10.37,2013-03-20 00:14:00,
2013-03-19 20:19:00,27.1,16.2,29.72,West,270,3.5,3.5,63,0.00,CLR,,0.07,WeatherDisplay:10.37,2013-03-20 00:19:00,
2013-03-19 20:24:00,27.1,16.2,29.72,WNW,292,4.6,4.6,63,0.00,CLR,,0.07,WeatherDisplay:10.37,2013-03-20 00:24:00,
2013-03-19 20:29:00,27.1,16.2,29.72,West,270,8.1,8.1,63,0.00,CLR,,0.07,WeatherDisplay:10.37,2013-03-20 00:29:00,
2013-03-19 20:34:00,27.3,16.0,29.72,SW,225,3.5,3.5,62,0.00,CLR,,0.07,WeatherDisplay:10.37,2013-03-20 00:34:00,
2013-03-19 20:39:00,27.1,15.8,29.72,NW,315,4.6,4.6,62,0.00,CLR,,0.07,WeatherDisplay:10.37,2013-03-20 00:39:00,
2013-03-19 20:44:00,27.1,15.8,29.72,SW,225,6.0,6.0,62,0.00,CLR,,0.07,WeatherDisplay:10.37,2013-03-20 00:44:00,
2013-03-19 20:49:00,27.1,16.2,29.71,SW,225,3.5,3.5,63,0.00,CLR,,0.07,WeatherDisplay:10.37,2013-03-20 00:49:00,
2013-03-19 20:54:00,27.1,16.2,29.72,North,0,5.8,5.8,63,0.00,CLR,,0.07,WeatherDisplay:10.37,2013-03-20 00:54:00,
2013-03-19 20:59:00,27.1,16.2,29.72,West,270,4.6,4.6,63,0.00,CLR,,0.07,WeatherDisplay:10.37,2013-03-20 00:59:00,
2013-03-19 21:04:00,27.1,16.2,29.72,SE,135,5.8,5.8,63,0.00,CLR,,0.07,WeatherDisplay:10.37,2013-03-20 01:04:00,
2013-03-19 21:09:00,27.1,16.2,29.72,SW,225,3.5,3.5,63,0.00,CLR,,0.07,WeatherDisplay:10.37,2013-03-20 01:09:00,
2013-03-19 21:14:00,27.0,16.0,29.72,NW,315,5.8,5.8,63,0.00,CLR,,0.07,WeatherDisplay:10.37,2013-03-20 01:14:00,
2013-03-19 21:19:00,27.0,16.0,29.72,SW,225,8.1,8.1,63,0.00,CLR,,0.07,WeatherDisplay:10.37,2013-03-20 01:19:00,
2013-03-19 21:24:00,27.0,16.0,29.72,West,270,4.6,4.6,63,0.00,CLR,,0.07,WeatherDisplay:10.37,2013-03-20 01:24:00,
2013-03-19 21:29:00,26.8,15.5,29.72,West,270,11.5,11.5,62,0.00,CLR,,0.07,WeatherDisplay:10.37,2013-03-20 01:29:00,
2013-03-19 21:34:00,26.8,15.5,29.72,West,270,5.8,5.8,62,0.00,CLR,,0.07,WeatherDisplay:10.37,2013-03-20 01:34:00,
2013-03-19 21:39:00,26.8,15.5,29.72,North,0,5.8,5.8,62,0.00,CLR,,0.07,WeatherDisplay:10.37,2013-03-20 01:39:00,
2013-03-19 21:44:00,26.8,15.5,29.72,West,270,5.8,5.8,62,0.00,CLR,,0.07,WeatherDisplay:10.37,2013-03-20 01:44:00,
2013-03-19 21:49:00,26.6,14.9,29.73,South,180,8.1,8.1,61,0.00,CLR,,0.07,WeatherDisplay:10.37,2013-03-20 01:49:00,
2013-03-19 21:54:00,26.6,15.3,29.73,NW,315,3.5,3.5,62,0.00,CLR,,0.07,WeatherDisplay:10.37,2013-03-20 01:54:00,
2013-03-19 21:59:00,26.4,15.5,29.73,West,270,4.6,4.6,63,0.00,CLR,,0.07,WeatherDisplay:10.37,2013-03-20 01:59:00,
2013-03-19 22:04:00,26.4,15.2,29.73,West,270,8.1,8.1,62,0.00,CLR,,0.07,WeatherDisplay:10.37,2013-03-20 02:04:00,
2013-03-19 22:09:00,26.4,15.2,29.73,NW,315,3.5,3.5,62,0.00,CLR,,0.07,WeatherDisplay:10.37,2013-03-20 02:09:00,
2013-03-19 22:14:00,26.4,15.2,29.73,West,270,8.1,8.1,62,0.00,CLR,,0.07,WeatherDisplay:10.37,2013-03-20 02:14:00,
2013-03-19 22:19:00,26.2,15.3,29.73,NW,315,6.9,6.9,63,0.00,CLR,,0.07,WeatherDisplay:10.37,2013-03-20 02:19:00,
2013-03-19 22:24:00,26.1,15.2,29.73,SW,225,5.8,5.8,63,0.00,CLR,,0.07,WeatherDisplay:10.37,2013-03-20 02:24:00,
2013-03-19 22:29:00,26.1,15.2,29.73,West,270,10.4,10.4,63,0.00,CLR,,0.07,WeatherDisplay:10.37,2013-03-20 02:29:00,
2013-03-19 22:34:00,25.9,15.0,29.74,South,180,8.3,8.3,63,0.00,CLR,,0.07,WeatherDisplay:10.37,2013-03-20 02:34:00,
2013-03-19 22:39:00,25.9,15.0,29.74,WNW,292,8.1,8.1,63,0.00,CLR,,0.07,WeatherDisplay:10.37,2013-03-20 02:39:00,
2013-03-19 22:44:00,25.9,15.0,29.74,West,270,9.2,9.2,63,0.00,CLR,,0.07,WeatherDisplay:10.37,2013-03-20 02:44:00,
2013-03-19 22:49:00,25.7,15.2,29.74,West,270,5.8,5.8,64,0.00,CLR,,0.07,WeatherDisplay:10.37,2013-03-20 02:49:00,
2013-03-19 22:54:00,25.5,15.0,29.74,SW,225,6.9,6.9,64,0.00,CLR,,0.07,WeatherDisplay:10.37,2013-03-20 02:54:00,
2013-03-19 22:59:00,25.5,15.4,29.74,SW,225,2.3,2.3,65,0.00,CLR,,0.07,WeatherDisplay:10.37,2013-03-20 02:59:00,
2013-03-19 23:04:00,25.3,15.2,29.74,West,270,7.6,7.6,65,0.00,CLR,,0.07,WeatherDisplay:10.37,2013-03-20 03:04:00,
2013-03-19 23:09:00,25.2,15.4,29.74,NW,315,3.5,3.5,66,0.00,CLR,,0.07,WeatherDisplay:10.37,2013-03-20 03:09:00,
2013-03-19 23:14:00,25.2,15.7,29.74,South,180,6.9,6.9,67,0.00,CLR,,0.07,WeatherDisplay:10.37,2013-03-20 03:14:00,
2013-03-19 23:19:00,25.0,15.6,29.74,SW,225,6.9,6.9,67,0.00,CLR,,0.07,WeatherDisplay:10.37,2013-03-20 03:19:00,
2013-03-19 23:24:00,25.2,16.1,29.74,SW,225,5.8,5.8,68,0.00,CLR,,0.07,WeatherDisplay:10.37,2013-03-20 03:24:00,
2013-03-19 23:29:00,25.2,16.1,29.74,SW,225,3.5,3.5,68,0.00,CLR,,0.07,WeatherDisplay:10.37,2013-03-20 03:29:00,
2013-03-19 23:34:00,25.2,16.4,29.74,NW,315,5.8,5.8,69,0.00,CLR,,0.07,WeatherDisplay:10.37,2013-03-20 03:34:00,
2013-03-19 23:39:00,25.2,16.4,29.74,NW,315,4.6,4.6,69,0.00,CLR,,0.07,WeatherDisplay:10.37,2013-03-20 03:39:00,
2013-03-19 23:44:00,25.3,16.2,29.74,West,270,4.6,4.6,68,0.00,CLR,,0.07,WeatherDisplay:10.37,2013-03-20 03:44:00,
2013-03-19 23:49:00,25.5,16.1,29.74,NW,315,3.5,3.5,67,0.00,CLR,,0.07,WeatherDisplay:10.37,2013-03-20 03:49:00,
2013-03-19 23:55:00,25.5,15.7,29.74,NW,315,2.3,2.3,66,0.00,CLR,,0.07,WeatherDisplay:10.37,2013-03-20 03:55:00,